EW8277 Weather Reports


time (UTC)temp
F
wind
direction
speed
knots
gust
knots
rain 1hr
in
rain 24hr
in
rain mn
in
humidity
%
barometer
mb
20260906114556 72 140 0.0 0.0 0.00 0.00 0.00 100 1011.7
20260906113059 72 140 0.0 0.0 0.00 0.00 0.00 100 1011.4
20260906111549 72 140 0.0 0.0 0.00 0.00 0.00 100 1011.3
20260906110045 72 140 0.0 0.0 0.00 0.00 0.00 100 1011.0
20260906104538 72 140 0.0 0.0 0.00 0.00 0.00 100 1010.9
20260906103033 72 140 0.0 0.0 0.00 0.00 0.00 100 1010.8
20260906101529 72 140 0.0 0.0 0.00 0.00 0.00 100 1010.5
20260906100021 72 140 0.0 0.0 0.00 0.00 0.00 100 1010.3
20260906094527 72 140 0.0 0.0 0.00 0.00 0.00 100 1010.2
20260906093104 72 140 0.0 0.0 0.00 0.00 0.00 100 1009.9
20260906091553 72 140 0.0 0.0 0.00 0.00 0.00 100 1009.7
20260906090029 72 140 0.0 0.0 0.00 0.00 0.00 100 1009.6
20260906084533 72 140 0.0 0.0 0.00 0.00 0.00 100 1009.5
20260906083009 72 140 0.0 0.0 0.00 0.00 0.00 100 1009.5
20260906081515 72 140 0.0 0.0 0.00 0.00 0.00 100 1009.4
20260906080100 72 140 0.0 0.0 0.00 0.00 0.00 100 1009.3
20260906074556 72 140 0.0 0.0 0.00 0.00 0.00 100 1009.2
20260906073053 72 140 0.0 0.0 0.00 0.00 0.00 100 1008.9
20260906071547 72 140 0.0 0.0 0.00 0.00 0.00 100 1008.8
20260906070043 72 140 0.0 0.0 0.00 0.00 0.00 100 1008.9
20260906064538 73 140 0.0 0.0 0.00 0.00 0.00 100 1009.1
20260906063017 73 140 0.0 0.0 0.00 0.00 0.00 100 1009.1
20260906061516 73 140 0.0 0.0 0.00 0.00 0.00 100 1009.2
20260906060057 73 140 0.0 0.0 0.00 0.00 0.00 100 1009.3
20260906054554 73 140 0.0 0.0 0.00 0.00 0.00 100 1009.4
20260906053048 74 140 0.0 0.0 0.00 0.00 0.00 100 1009.6
20260906051545 73 140 0.0 0.0 0.00 0.00 0.00 100 1009.8
20260906050040 74 140 0.0 0.0 0.00 0.00 0.00 100 1009.9
20260906044541 74 140 0.0 0.0 0.00 0.00 0.00 100 1009.9
20260906043033 74 140 0.0 0.0 0.00 0.00 0.00 100 1010.1
20260906041527 74 140 0.0 0.0 0.00 0.00 0.00 100 1010.2
20260906040005 74 140 0.0 0.0 0.00 0.00 0.00 100 1010.2
20260906034501 74 140 0.0 0.0 0.00 0.00 0.00 100 1010.0
20260906033040 74 140 0.0 0.0 0.00 0.00 0.00 100 1010.2
20260906031547 75 140 0.0 0.0 0.00 0.00 0.00 100 1010.1
20260906030013 75 140 0.0 0.0 0.00 0.00 0.00 100 1010.2
20260906024510 75 140 0.0 0.0 0.00 0.00 0.00 100 1010.2
20260906023051 75 140 0.0 0.0 0.00 0.00 0.00 100 1010.1
20260906021552 75 140 0.0 0.0 0.00 0.00 0.00 100 1009.8
20260906020030 75 140 0.0 0.0 0.00 0.00 0.00 100 1009.6
20260906014518 75 140 0.0 0.0 0.00 0.00 0.00 100 1009.9
20260906013057 75 140 0.0 0.0 0.00 0.00 0.00 100 1009.9
20260906011557 76 140 0.0 0.0 0.00 0.00 0.00 100 1009.9
20260906010031 76 140 0.0 0.0 0.00 0.00 0.00 100 1009.6
20260906004527 76 140 0.0 0.0 0.00 0.00 0.00 100 1009.5
20260906003019 76 140 0.0 0.0 0.00 0.00 0.00 100 1009.3
20260906001506 76 140 0.0 0.0 0.00 0.00 0.00 100 1009.1
20260906000001 77 140 0.0 0.0 0.00 0.00 0.00 100 1008.9
20260905234559 77 140 0.0 0.0 0.00 0.00 0.00 100 1008.7
20260905233102 77 140 0.0 0.0 0.00 0.00 0.00 100 1008.4
20260905231548 77 140 0.0 0.0 0.00 0.00 0.00 100 1008.3
20260905230050 77 140 0.0 0.0 0.00 0.00 0.00 100 1008.0
20260905224539 77 140 0.0 0.0 0.00 0.00 0.00 100 1008.0
20260905223031 76 140 0.0 0.0 0.00 0.00 0.00 100 1008.1
20260905221533 76 140 0.0 0.0 0.00 0.00 0.00 100 1008.4
20260905220100 76 140 0.0 0.0 0.00 0.00 0.00 100 1008.4
20260905214548 76 82 0.0 0.0 0.00 0.00 0.00 100 1008.0
20260905213035 76 82 0.0 0.0 0.00 0.00 0.00 100 1007.8
20260905211540 76 82 0.0 0.0 0.00 0.00 0.00 100 1007.7
20260905210025 76 82 0.0 0.0 0.00 0.00 0.00 100 1007.9
20260905204520 77 82 0.0 0.0 0.00 0.00 0.00 100 1007.9
20260905203016 76 82 0.0 0.0 0.00 0.00 0.00 100 1007.6
20260905201511 76 82 0.0 0.0 0.00 0.00 0.00 100 1007.6
20260905200008 76 82 0.0 0.0 0.00 0.00 0.00 100 1008.0
20260905194502 78 82 0.0 0.0 0.00 0.00 0.00 30 1009.0
20260905193058 85 354 0.0 0.0 0.00 0.00 0.00 69 1009.6
20260905191541 88 33 0.0 0.0 0.00 0.00 0.00 65 1008.0
20260905190033 94 240 0.0 0.0 0.00 0.00 0.00 58 1007.6
20260905184511 97 240 0.0 0.0 0.00 0.00 0.00 56 1007.2
20260905183007 98 274 0.0 0.0 0.00 0.00 0.00 54 1007.5
20260905181545 98 251 0.0 0.0 0.00 0.00 0.00 53 1007.3
20260905180041 98 256 0.0 0.0 0.00 0.00 0.00 55 1007.9
20260905174526 98 301 0.0 0.0 0.00 0.00 0.00 56 1008.3
20260905173023 98 296 0.0 0.0 0.00 0.00 0.00 56 1008.8
20260905171533 98 236 0.0 0.0 0.00 0.00 0.00 57 1009.0
20260905170013 97 251 0.0 0.0 0.00 0.00 0.00 58 1009.2
20260905164510 95 277 0.0 0.0 0.00 0.00 0.00 59 1009.5
20260905163003 95 256 0.0 0.0 0.00 0.00 0.00 59 1009.6
20260905161604 95 243 0.0 0.0 0.00 0.00 0.00 59 1009.8
20260905160055 94 244 0.0 0.0 0.00 0.00 0.00 61 1010.0
20260905154551 93 244 0.0 0.0 0.00 0.00 0.00 61 1010.2
20260905153034 92 244 0.0 0.0 0.00 0.00 0.00 63 1010.4
20260905151531 91 292 0.0 0.0 0.00 0.00 0.00 65 1010.6
20260905150026 90 30 0.0 0.0 0.00 0.00 0.00 65 1010.6
20260905144534 89 300 0.0 0.0 0.00 0.00 0.00 65 1010.6
20260905143017 86 256 0.0 0.0 0.00 0.00 0.00 62 1010.6
20260905141512 85 256 0.0 0.0 0.00 0.00 0.00 60 1010.5
20260905140009 83 256 0.0 0.0 0.00 0.00 0.00 52 1010.5
20260905134551 82 232 0.0 0.0 0.00 0.00 0.00 42 1010.5
20260905133042 80 251 0.0 0.0 0.00 0.00 0.00 18 1010.6
20260905131521 79 251 0.0 0.0 0.00 0.00 0.00 100 1010.5
20260905130019 78 251 0.0 0.0 0.00 0.00 0.00 100 1010.6
20260905124555 76 247 0.0 0.0 0.00 0.00 0.00 100 1010.7
20260905123052 75 42 0.0 0.0 0.00 0.00 0.00 100 1010.7
20260905121535 75 42 0.0 0.0 0.00 0.00 0.00 100 1010.6
20260905120033 74 42 0.0 0.0 0.00 0.00 0.00 100 1010.7